Main page
METAR-TAF:

METAR-TAF

Airports :

Bétera-Valencia

Valencia, Spain

latitude: 39-37-26N, longitude: 0-28-26W, elevation: 127 m

Current weather observation

The report was made 14 minutes ago, at 21:00 UTC
Wind 4 kt from the North, varying between North/Northwest and North/Northeast
Temperature 6°C
Humidity 81%
Pressure 1022 hPa
Visibility 10 km or more

METAR: LEBT 102100Z AUTO 36004KT 330V030 9999 NCD 06/03 Q1022

Time: 22:14 (21:14 UTC)


TAF: missing

Weather observations and forecasts of more than 4000 airports (METAR and TAF reports).

The available stations are represented by yellow and red dots on the map.

Hover mouse over dot to see the name of the station.

Then click to see weather observations and forecasts.

To change the map : click on the green buttons with a black cross to zoom in, on the green button with a dash to zoom out, or on the green arrows for adjacent maps.


METAR-TAF: